N35542 KBHM-KBHM

Flight info

Callsign N35542
Flight time N/A
Altitude VFR
Route PATTERN
Aircraft C172/L-DOV/C

Departure

Time 2026-04-22 00:51
Airport Birmingham-Shuttlesworth International Airport (KBHM)

Arrival

Time N/A
Airport Birmingham-Shuttlesworth International Airport (KBHM)
Time Latitude Longitude Altitude Speed Heading
2026-04-22 00:41 33.56586 -86.74235 634 ft 0 kts 167°
2026-04-22 00:41 33.56585 -86.74235 634 ft 0 kts 167°
2026-04-22 00:42 33.56580 -86.74235 634 ft 3 kts 199°
2026-04-22 00:42 33.56563 -86.74258 633 ft 6 kts 233°
2026-04-22 00:42 33.56522 -86.74329 629 ft 12 kts 258°
2026-04-22 00:43 33.56536 -86.74380 628 ft 7 kts 351°
2026-04-22 00:43 33.56572 -86.74392 629 ft 6 kts 343°
2026-04-22 00:43 33.56621 -86.74420 629 ft 7 kts 326°
2026-04-22 00:43 33.56641 -86.74491 628 ft 10 kts 271°
2026-04-22 00:44 33.56646 -86.74568 628 ft 6 kts 298°
2026-04-22 00:44 33.56668 -86.74586 629 ft 2 kts 346°
2026-04-22 00:44 33.56719 -86.74590 630 ft 11 kts
2026-04-22 00:44 33.56798 -86.74519 631 ft 15 kts 55°
2026-04-22 00:45 33.56856 -86.74416 634 ft 12 kts 53°
2026-04-22 00:45 33.56911 -86.74323 637 ft 11 kts 54°
2026-04-22 00:45 33.56945 -86.74266 638 ft 6 kts 52°
2026-04-22 00:45 33.56955 -86.74248 639 ft 3 kts 57°
2026-04-22 00:46 33.56989 -86.74190 641 ft 12 kts 56°
2026-04-22 00:46 33.57056 -86.74072 644 ft 18 kts 52°
2026-04-22 00:46 33.57128 -86.73949 650 ft 14 kts 57°
2026-04-22 00:46 33.57171 -86.73872 655 ft 7 kts 53°
2026-04-22 00:47 33.57204 -86.73837 658 ft 6 kts 22°
2026-04-22 00:47 33.57257 -86.73851 658 ft 5 kts 323°
2026-04-22 00:47 33.57258 -86.73852 658 ft 0 kts 322°
2026-04-22 00:50 33.57288 -86.73878 658 ft 13 kts 322°
2026-04-22 00:50 33.57296 -86.73999 653 ft 20 kts 235°
2026-04-22 00:50 33.57122 -86.74331 670 ft 59 kts 240°
2026-04-22 00:50 33.56842 -86.74814 758 ft 74 kts 231°
2026-04-22 00:51 33.56492 -86.75381 858 ft 84 kts 235°
2026-04-22 00:51 33.56156 -86.76011 1042 ft 83 kts 236°
2026-04-22 00:51 33.55782 -86.76623 1203 ft 83 kts 233°
2026-04-22 00:51 33.55590 -86.77273 1319 ft 83 kts 288°
2026-04-22 00:52 33.56116 -86.77752 1296 ft 95 kts 324°
2026-04-22 00:52 33.56776 -86.78055 1247 ft 104 kts
2026-04-22 00:52 33.57353 -86.77421 1141 ft 108 kts 57°
2026-04-22 00:52 33.57774 -86.76646 1231 ft 99 kts 51°
2026-04-22 00:53 33.58212 -86.75927 1362 ft 103 kts 51°
2026-04-22 00:53 33.58658 -86.75244 1418 ft 100 kts 49°
2026-04-22 00:53 33.59121 -86.74556 1339 ft 99 kts 49°
2026-04-22 00:53 33.59215 -86.73724 1187 ft 101 kts 124°
2026-04-22 00:54 33.58628 -86.73196 1016 ft 94 kts 153°
2026-04-22 00:54 33.58033 -86.73057 901 ft 74 kts 201°
2026-04-22 00:54 33.57643 -86.73380 868 ft 66 kts 228°
2026-04-22 00:54 33.57344 -86.73967 906 ft 85 kts 257°
2026-04-22 00:55 33.57645 -86.74641 967 ft 96 kts 329°
2026-04-22 00:55 33.58260 -86.75014 1096 ft 92 kts 328°
2026-04-22 00:55 33.59280 -86.74178 1163 ft 95 kts 63°
2026-04-22 00:56 33.59108 -86.73468 986 ft 89 kts 153°
2026-04-22 00:56 33.58600 -86.73106 940 ft 73 kts 153°
2026-04-22 00:56 33.58104 -86.73027 834 ft 66 kts 192°
2026-04-22 00:56 33.57711 -86.73258 771 ft 59 kts 239°